Starlink 31428

operational
NORAD ID: 59367 Int'l Des: 2024-060 Owner: SPXS Country: US Constellation: starlink
LEOCIRCULAR

About Starlink 31428

Description loading...

Live Position

Loading 3D Globe...

Upcoming Passes

Altitude History

Altitude vs Time

uPlot chart will show altitude changes over time

Two-Line Element Set

1 59367U 24060V 25352.07876280 .00000517 00000-0 28295-4 0 9990
2 59367 43.0006 0.5641 0000517 260.9677 99.1117 15.27566650 97581
Epoch: Dec 18, 2025 • Age: 12 hours

Current Status

Altitude 493.6 km
Velocity 7.62 km/s
Sub-Earth Point -36.90°S, 4.36°E
Launch Date Mar 31, 2024
Age 1.7 years
Type internet

Technical Details

Classification Payload
Mass 730.00 kg
Dry Mass 700.00 kg
Total Mass 730.00 kg
Length 0.30 m
Diameter 4.10 m
Span 29.00 m
Shape Box + pan
Manufacturer SPXS
Bus Type Starlink V2M
Phase Status In Orbit
Owner/State SPXS/US

Large Constellations

Loading constellations...